Time,TemperatureF,DewpointF,PressureIn,WindDirection,WindDirectionDegrees,WindSpeedMPH,WindSpeedGustMPH,Humidity,HourlyPrecipIn,Conditions,Clouds,dailyrainin,SoftwareType,DateUTC
2013-04-01 00:02:00,34.4,23.4,30.29,North,0,0.0,0.0,64,0.00,,,0.00,WUHU216HW,2013-04-01 05:02:00,
2013-04-01 00:07:00,34.4,23.4,30.30,North,0,0.0,0.0,64,0.00,,,0.00,WUHU216HW,2013-04-01 05:07:00,
2013-04-01 00:12:00,34.2,23.6,30.30,North,0,0.0,0.0,65,0.00,,,0.00,WUHU216HW,2013-04-01 05:12:00,
2013-04-01 00:17:00,34.2,23.6,30.30,North,0,0.0,0.0,65,0.00,,,0.00,WUHU216HW,2013-04-01 05:17:00,
2013-04-01 00:22:00,34.2,23.6,30.30,North,0,0.0,0.0,65,0.00,,,0.00,WUHU216HW,2013-04-01 05:22:00,
2013-04-01 00:27:00,34.0,23.4,30.30,North,0,0.0,0.0,65,0.00,,,0.00,WUHU216HW,2013-04-01 05:27:00,
2013-04-01 00:32:00,33.8,23.6,30.30,North,0,0.0,0.0,66,0.00,,,0.00,WUHU216HW,2013-04-01 05:32:00,
2013-04-01 00:37:00,33.5,23.2,30.30,North,0,0.0,0.0,66,0.00,,,0.00,WUHU216HW,2013-04-01 05:37:00,
2013-04-01 00:42:00,33.5,23.2,30.30,North,0,0.0,0.0,66,0.00,,,0.00,WUHU216HW,2013-04-01 05:42:00,
2013-04-01 00:47:00,33.3,23.5,30.31,North,0,0.0,0.0,67,0.00,,,0.00,WUHU216HW,2013-04-01 05:47:00,
2013-04-01 00:52:00,32.9,23.1,30.31,North,0,0.0,0.0,67,0.00,,,0.00,WUHU216HW,2013-04-01 05:52:00,
2013-04-01 00:57:00,32.8,23.0,30.32,North,0,0.0,0.0,67,0.00,,,0.00,WUHU216HW,2013-04-01 05:57:00,
2013-04-01 01:02:00,32.8,23.7,30.32,North,0,0.0,0.0,69,0.00,,,0.00,WUHU216HW,2013-04-01 06:02:00,
2013-04-01 01:07:00,32.8,23.7,30.32,North,0,0.0,0.0,69,0.00,,,0.00,WUHU216HW,2013-04-01 06:07:00,
2013-04-01 01:12:00,32.6,23.1,30.32,North,0,0.0,0.0,68,0.00,,,0.00,WUHU216HW,2013-04-01 06:12:00,
2013-04-01 01:17:00,32.4,23.4,30.32,North,0,0.0,0.0,69,0.00,,,0.00,WUHU216HW,2013-04-01 06:17:00,
2013-04-01 01:22:00,32.2,23.2,30.32,North,0,0.0,0.0,69,0.00,,,0.00,WUHU216HW,2013-04-01 06:22:00,
2013-04-01 01:27:00,32.0,23.4,30.33,North,0,0.0,0.0,70,0.00,,,0.00,WUHU216HW,2013-04-01 06:27:00,
2013-04-01 01:32:00,32.0,23.4,30.33,North,0,0.0,0.0,70,0.00,,,0.00,WUHU216HW,2013-04-01 06:32:00,
2013-04-01 01:37:00,31.9,23.2,30.33,North,0,0.0,0.0,70,0.00,,,0.00,WUHU216HW,2013-04-01 06:37:00,
2013-04-01 01:42:00,31.7,23.0,30.33,North,0,0.0,0.0,70,0.00,,,0.00,WUHU216HW,2013-04-01 06:42:00,
2013-04-01 01:47:00,31.5,23.2,30.33,North,0,0.0,0.0,71,0.00,,,0.00,WUHU216HW,2013-04-01 06:47:00,
2013-04-01 01:52:00,31.3,23.1,30.33,North,0,0.0,0.0,71,0.00,,,0.00,WUHU216HW,2013-04-01 06:52:00,
2013-04-01 01:57:00,31.3,23.3,30.33,North,0,0.0,0.0,72,0.00,,,0.00,WUHU216HW,2013-04-01 06:57:00,
2013-04-01 02:02:00,31.3,23.3,30.34,North,0,0.0,0.0,72,0.00,,,0.00,WUHU216HW,2013-04-01 07:02:00,
2013-04-01 02:07:00,31.1,23.1,30.33,North,0,0.0,0.0,72,0.00,,,0.00,WUHU216HW,2013-04-01 07:07:00,
2013-04-01 02:12:00,31.0,23.3,30.34,North,0,0.0,0.0,73,0.00,,,0.00,WUHU216HW,2013-04-01 07:12:00,
2013-04-01 02:18:00,30.8,22.8,30.33,North,0,0.0,0.0,72,0.00,,,0.00,WUHU216HW,2013-04-01 07:18:00,
2013-04-01 02:23:00,30.8,22.8,30.34,North,0,0.0,0.0,72,0.00,,,0.00,WUHU216HW,2013-04-01 07:23:00,
2013-04-01 02:28:00,30.8,22.8,30.34,North,0,0.0,0.0,72,0.00,,,0.00,WUHU216HW,2013-04-01 07:28:00,
2013-04-01 02:33:00,30.6,23.0,30.34,North,0,0.0,0.0,73,0.00,,,0.00,WUHU216HW,2013-04-01 07:33:00,
2013-04-01 02:38:00,30.6,23.0,30.35,North,0,0.0,0.0,73,0.00,,,0.00,WUHU216HW,2013-04-01 07:38:00,
2013-04-01 02:43:00,30.6,23.0,30.35,North,0,0.0,0.0,73,0.00,,,0.00,WUHU216HW,2013-04-01 07:43:00,
2013-04-01 02:48:00,30.4,22.8,30.35,North,0,0.0,0.0,73,0.00,,,0.00,WUHU216HW,2013-04-01 07:48:00,
2013-04-01 02:53:00,30.4,22.8,30.35,North,0,0.0,0.0,73,0.00,,,0.00,WUHU216HW,2013-04-01 07:53:00,
2013-04-01 02:58:00,30.4,22.8,30.35,North,0,0.0,0.0,73,0.00,,,0.00,WUHU216HW,2013-04-01 07:58:00,
2013-04-01 03:03:00,30.2,22.6,30.35,North,0,0.0,0.0,73,0.00,,,0.00,WUHU216HW,2013-04-01 08:03:00,
2013-04-01 03:08:00,30.1,22.4,30.36,North,0,0.0,0.0,73,0.00,,,0.00,WUHU216HW,2013-04-01 08:08:00,
2013-04-01 03:13:00,30.1,22.4,30.36,North,0,0.0,0.0,73,0.00,,,0.00,WUHU216HW,2013-04-01 08:13:00,
2013-04-01 03:18:00,29.9,22.2,30.35,North,0,0.0,0.0,73,0.00,,,0.00,WUHU216HW,2013-04-01 08:18:00,
2013-04-01 03:23:00,29.9,22.2,30.35,North,0,0.0,0.0,73,0.00,,,0.00,WUHU216HW,2013-04-01 08:23:00,
2013-04-01 03:28:00,29.9,22.2,30.36,North,0,0.0,0.0,73,0.00,,,0.00,WUHU216HW,2013-04-01 08:28:00,
2013-04-01 03:32:00,29.7,22.1,30.36,North,0,0.0,0.0,73,0.00,,,0.00,WUHU216HW,2013-04-01 08:32:00,
2013-04-01 03:37:00,29.5,21.9,30.35,North,0,0.0,0.0,73,0.00,,,0.00,WUHU216HW,2013-04-01 08:37:00,
2013-04-01 03:42:00,29.5,22.2,30.36,North,0,0.0,0.0,74,0.00,,,0.00,WUHU216HW,2013-04-01 08:42:00,
2013-04-01 03:47:00,29.3,22.1,30.36,North,0,0.0,0.0,74,0.00,,,0.00,WUHU216HW,2013-04-01 08:47:00,
2013-04-01 03:53:00,29.2,21.9,30.36,North,0,0.0,0.0,74,0.00,,,0.00,WUHU216HW,2013-04-01 08:53:00,
2013-04-01 03:57:00,29.2,21.9,30.37,North,0,0.0,0.0,74,0.00,,,0.00,WUHU216HW,2013-04-01 08:57:00,
2013-04-01 04:02:00,29.2,22.2,30.36,North,0,0.0,0.0,75,0.00,,,0.00,WUHU216HW,2013-04-01 09:02:00,
2013-04-01 04:07:00,29.2,22.2,30.37,North,0,0.0,0.0,75,0.00,,,0.00,WUHU216HW,2013-04-01 09:07:00,
2013-04-01 04:12:00,29.2,22.2,30.37,North,0,0.0,0.0,75,0.00,,,0.00,WUHU216HW,2013-04-01 09:12:00,
2013-04-01 04:18:00,29.0,22.1,30.38,North,0,0.0,0.0,75,0.00,,,0.00,WUHU216HW,2013-04-01 09:18:00,
2013-04-01 04:22:00,28.8,21.5,30.38,North,0,0.0,0.0,74,0.00,,,0.00,WUHU216HW,2013-04-01 09:22:00,
2013-04-01 04:28:00,28.6,21.7,30.38,North,0,0.0,0.0,75,0.00,,,0.00,WUHU216HW,2013-04-01 09:28:00,
2013-04-01 04:33:00,28.6,21.7,30.38,North,0,0.0,0.0,75,0.00,,,0.00,WUHU216HW,2013-04-01 09:33:00,
2013-04-01 04:38:00,28.6,21.3,30.38,North,0,0.0,0.0,74,0.00,,,0.00,WUHU216HW,2013-04-01 09:38:00,
2013-04-01 04:43:00,28.4,21.3,30.38,North,0,0.0,0.0,74,0.00,,,0.00,WUHU216HW,2013-04-01 09:43:00,
2013-04-01 04:48:00,28.4,21.5,30.38,North,0,0.0,0.0,75,0.00,,,0.00,WUHU216HW,2013-04-01 09:48:00,
2013-04-01 04:53:00,28.4,21.3,30.39,North,0,0.0,0.0,74,0.00,,,0.00,WUHU216HW,2013-04-01 09:53:00,
2013-04-01 04:58:00,28.4,21.5,30.39,North,0,0.0,0.0,75,0.00,,,0.00,WUHU216HW,2013-04-01 09:58:00,
2013-04-01 05:03:00,28.3,21.3,30.39,North,0,0.0,0.0,75,0.00,,,0.00,WUHU216HW,2013-04-01 10:03:00,
2013-04-01 05:08:00,28.3,21.6,30.39,North,0,0.0,0.0,76,0.00,,,0.00,WUHU216HW,2013-04-01 10:08:00,
2013-04-01 05:13:00,28.1,21.2,30.39,North,0,0.0,0.0,75,0.00,,,0.00,WUHU216HW,2013-04-01 10:13:00,
2013-04-01 05:18:00,28.1,21.2,30.40,North,0,0.0,0.0,75,0.00,,,0.00,WUHU216HW,2013-04-01 10:18:00,
2013-04-01 05:23:00,28.1,21.4,30.40,North,0,0.0,0.0,76,0.00,,,0.00,WUHU216HW,2013-04-01 10:23:00,
2013-04-01 05:28:00,28.1,21.2,30.40,North,0,0.0,0.0,75,0.00,,,0.00,WUHU216HW,2013-04-01 10:28:00,
2013-04-01 05:33:00,27.9,21.2,30.40,North,0,0.0,0.0,76,0.00,,,0.00,WUHU216HW,2013-04-01 10:33:00,
2013-04-01 05:38:00,27.9,21.2,30.40,North,0,0.0,0.0,76,0.00,,,0.00,WUHU216HW,2013-04-01 10:38:00,
2013-04-01 05:43:00,27.9,21.0,30.40,North,0,0.0,0.0,75,0.00,,,0.00,WUHU216HW,2013-04-01 10:43:00,
2013-04-01 05:48:00,27.7,21.1,30.40,North,0,0.0,0.0,76,0.00,,,0.00,WUHU216HW,2013-04-01 10:48:00,
2013-04-01 05:53:00,27.7,21.1,30.41,North,0,0.0,0.0,76,0.00,,,0.00,WUHU216HW,2013-04-01 10:53:00,
2013-04-01 05:58:00,27.5,20.6,30.41,North,0,0.0,0.0,75,0.00,,,0.00,WUHU216HW,2013-04-01 10:58:00,
2013-04-01 06:03:00,27.5,20.6,30.41,North,0,0.0,0.0,75,0.00,,,0.00,WUHU216HW,2013-04-01 11:03:00,
2013-04-01 06:08:00,27.4,20.4,30.41,North,0,0.0,0.0,75,0.00,,,0.00,WUHU216HW,2013-04-01 11:08:00,
2013-04-01 06:13:00,27.2,20.3,30.42,North,0,0.0,0.0,75,0.00,,,0.00,WUHU216HW,2013-04-01 11:13:00,
2013-04-01 06:18:00,27.0,20.1,30.42,North,0,0.0,0.0,75,0.00,,,0.00,WUHU216HW,2013-04-01 11:18:00,
2013-04-01 06:23:00,27.0,20.1,30.42,North,0,0.0,0.0,75,0.00,,,0.00,WUHU216HW,2013-04-01 11:23:00,
2013-04-01 06:28:00,26.8,20.2,30.43,North,0,0.0,0.0,76,0.00,,,0.00,WUHU216HW,2013-04-01 11:28:00,
2013-04-01 06:33:00,26.8,20.2,30.43,North,0,0.0,0.0,76,0.00,,,0.00,WUHU216HW,2013-04-01 11:33:00,
2013-04-01 06:38:00,26.8,20.2,30.43,North,0,0.0,0.0,76,0.00,,,0.00,WUHU216HW,2013-04-01 11:38:00,
2013-04-01 06:43:00,27.0,20.3,30.43,North,0,0.0,0.0,76,0.00,,,0.00,WUHU216HW,2013-04-01 11:43:00,
2013-04-01 06:48:00,27.0,20.3,30.44,North,0,0.0,0.0,76,0.00,,,0.00,WUHU216HW,2013-04-01 11:48:00,
2013-04-01 06:53:00,27.0,20.3,30.44,North,0,0.0,0.0,76,0.00,,,0.00,WUHU216HW,2013-04-01 11:53:00,
2013-04-01 06:58:00,27.2,20.5,30.44,North,0,0.0,0.0,76,0.00,,,0.00,WUHU216HW,2013-04-01 11:58:00,
2013-04-01 07:03:00,27.9,21.0,30.45,North,0,0.0,0.0,75,0.00,,,0.00,WUHU216HW,2013-04-01 12:03:00,
2013-04-01 07:08:00,28.8,21.9,30.45,North,0,0.0,0.0,75,0.00,,,0.00,WUHU216HW,2013-04-01 12:08:00,
2013-04-01 07:13:00,29.9,22.9,30.45,North,0,0.0,0.0,75,0.00,,,0.00,WUHU216HW,2013-04-01 12:13:00,
2013-04-01 07:18:00,30.8,22.8,30.46,North,0,0.0,0.0,72,0.00,,,0.00,WUHU216HW,2013-04-01 12:18:00,
2013-04-01 07:23:00,31.9,23.2,30.46,North,0,0.0,0.0,70,0.00,,,0.00,WUHU216HW,2013-04-01 12:23:00,
2013-04-01 07:28:00,33.1,24.4,30.46,North,0,0.0,0.0,70,0.00,,,0.00,WUHU216HW,2013-04-01 12:28:00,
2013-04-01 07:33:00,34.6,24.7,30.47,North,0,0.0,0.0,67,0.00,,,0.00,WUHU216HW,2013-04-01 12:33:00,
2013-04-01 07:38:00,36.0,25.4,30.47,North,0,0.0,0.0,65,0.00,,,0.00,WUHU216HW,2013-04-01 12:38:00,
2013-04-01 07:43:00,37.4,25.6,30.47,North,0,0.0,0.0,62,0.00,,,0.00,WUHU216HW,2013-04-01 12:43:00,
2013-04-01 07:48:00,39.2,26.5,30.47,North,0,0.0,0.0,60,0.00,,,0.00,WUHU216HW,2013-04-01 12:48:00,
2013-04-01 07:54:00,40.0,25.0,30.47,North,0,0.0,0.0,55,0.00,,,0.00,WUHU216HW,2013-04-01 12:54:00,
2013-04-01 07:59:00,40.3,24.8,30.47,North,0,0.0,0.0,54,0.00,,,0.00,WUHU216HW,2013-04-01 12:59:00,
2013-04-01 08:04:00,41.8,24.9,30.47,North,0,0.0,0.0,51,0.00,,,0.00,WUHU216HW,2013-04-01 13:04:00,
2013-04-01 08:09:00,42.3,25.5,30.47,North,0,0.0,0.0,51,0.00,,,0.00,WUHU216HW,2013-04-01 13:09:00,
2013-04-01 08:14:00,43.6,27.6,30.47,North,0,0.0,0.0,53,0.00,,,0.00,WUHU216HW,2013-04-01 13:14:00,
2013-04-01 08:19:00,44.8,26.8,30.48,North,0,0.0,0.0,49,0.00,,,0.00,WUHU216HW,2013-04-01 13:19:00,
2013-04-01 08:24:00,45.0,27.0,30.48,North,0,0.0,0.0,49,0.00,,,0.00,WUHU216HW,2013-04-01 13:24:00,
2013-04-01 08:29:00,45.0,25.9,30.48,North,0,0.0,0.0,47,0.00,,,0.00,WUHU216HW,2013-04-01 13:29:00,
2013-04-01 08:34:00,44.5,25.4,30.48,North,0,0.0,0.0,47,0.00,,,0.00,WUHU216HW,2013-04-01 13:34:00,
2013-04-01 08:39:00,43.2,23.8,30.49,North,0,0.0,0.0,46,0.00,,,0.00,WUHU216HW,2013-04-01 13:39:00,
2013-04-01 08:44:00,41.8,23.4,30.49,North,0,0.0,0.0,48,0.00,,,0.00,WUHU216HW,2013-04-01 13:44:00,
2013-04-01 08:49:00,40.5,22.8,30.49,North,0,0.0,0.0,49,0.00,,,0.00,WUHU216HW,2013-04-01 13:49:00,
2013-04-01 08:54:00,39.2,22.1,30.49,North,0,0.0,0.0,50,0.00,,,0.00,WUHU216HW,2013-04-01 13:54:00,
2013-04-01 08:59:00,38.3,22.2,30.50,North,0,0.0,0.0,52,0.00,,,0.00,WUHU216HW,2013-04-01 13:59:00,
2013-04-01 09:04:00,37.6,21.5,30.50,North,0,0.0,0.0,52,0.00,,,0.00,WUHU216HW,2013-04-01 14:04:00,
2013-04-01 09:09:00,37.1,22.0,30.50,North,0,0.0,0.0,54,0.00,,,0.00,WUHU216HW,2013-04-01 14:09:00,
2013-04-01 09:14:00,37.3,22.1,30.50,North,0,0.0,0.0,54,0.00,,,0.00,WUHU216HW,2013-04-01 14:14:00,
2013-04-01 09:19:00,37.1,21.5,30.50,North,0,0.0,0.0,53,0.00,,,0.00,WUHU216HW,2013-04-01 14:19:00,
2013-04-01 09:24:00,36.7,21.2,30.50,North,0,0.0,0.0,53,0.00,,,0.00,WUHU216HW,2013-04-01 14:24:00,
2013-04-01 09:29:00,36.9,21.8,30.50,North,0,0.0,0.0,54,0.00,,,0.00,WUHU216HW,2013-04-01 14:29:00,
2013-04-01 09:34:00,37.1,22.0,30.51,North,0,0.0,0.0,54,0.00,,,0.00,WUHU216HW,2013-04-01 14:34:00,
2013-04-01 09:39:00,37.1,22.0,30.51,North,0,0.0,0.0,54,0.00,,,0.00,WUHU216HW,2013-04-01 14:39:00,
2013-04-01 09:44:00,37.3,21.7,30.51,North,0,0.0,0.0,53,0.00,,,0.00,WUHU216HW,2013-04-01 14:44:00,
2013-04-01 09:49:00,37.8,22.1,30.51,North,0,0.0,0.0,53,0.00,,,0.00,WUHU216HW,2013-04-01 14:49:00,
2013-04-01 09:54:00,38.0,21.0,30.51,North,0,0.0,0.0,50,0.00,,,0.00,WUHU216HW,2013-04-01 14:54:00,
2013-04-01 09:59:00,38.2,20.6,30.51,North,0,0.0,0.0,49,0.00,,,0.00,WUHU216HW,2013-04-01 14:59:00,
2013-04-01 10:04:00,38.3,19.8,30.51,North,0,0.0,0.0,47,0.00,,,0.00,WUHU216HW,2013-04-01 15:04:00,
2013-04-01 10:09:00,38.0,20.5,30.51,North,0,0.0,0.0,49,0.00,,,0.00,WUHU216HW,2013-04-01 15:09:00,
2013-04-01 10:14:00,38.0,20.0,30.52,North,0,0.0,0.0,48,0.00,,,0.00,WUHU216HW,2013-04-01 15:14:00,
2013-04-01 10:19:00,37.8,19.8,30.52,North,0,0.0,0.0,48,0.00,,,0.00,WUHU216HW,2013-04-01 15:19:00,
2013-04-01 10:24:00,38.2,20.2,30.52,North,0,0.0,0.0,48,0.00,,,0.00,WUHU216HW,2013-04-01 15:24:00,
2013-04-01 10:29:00,38.0,18.9,30.52,North,0,0.0,0.0,46,0.00,,,0.00,WUHU216HW,2013-04-01 15:29:00,
2013-04-01 10:34:00,38.2,20.2,30.52,North,0,0.0,0.0,48,0.00,,,0.00,WUHU216HW,2013-04-01 15:34:00,
2013-04-01 10:39:00,38.2,19.1,30.52,North,0,0.0,0.0,46,0.00,,,0.00,WUHU216HW,2013-04-01 15:39:00,
2013-04-01 10:44:00,38.3,19.3,30.52,North,0,0.0,0.0,46,0.00,,,0.00,WUHU216HW,2013-04-01 15:44:00,
2013-04-01 10:49:00,38.3,19.3,30.52,North,0,0.0,0.0,46,0.00,,,0.00,WUHU216HW,2013-04-01 15:49:00,
2013-04-01 10:54:00,38.2,18.5,30.52,North,0,0.0,0.0,45,0.00,,,0.00,WUHU216HW,2013-04-01 15:54:00,
2013-04-01 10:59:00,37.6,18.1,30.53,North,0,0.0,0.0,45,0.00,,,0.00,WUHU216HW,2013-04-01 15:59:00,
2013-04-01 11:04:00,37.8,18.3,30.53,North,0,0.0,0.0,45,0.00,,,0.00,WUHU216HW,2013-04-01 16:04:00,
2013-04-01 11:09:00,38.2,18.5,30.52,North,0,0.0,0.0,45,0.00,,,0.00,WUHU216HW,2013-04-01 16:09:00,
2013-04-01 11:14:00,37.8,18.3,30.52,North,0,0.0,0.0,45,0.00,,,0.00,WUHU216HW,2013-04-01 16:14:00,
2013-04-01 11:19:00,38.3,18.7,30.52,North,0,0.0,0.0,45,0.00,,,0.00,WUHU216HW,2013-04-01 16:19:00,
2013-04-01 11:24:00,39.1,19.4,30.52,North,0,0.0,0.0,45,0.00,,,0.00,WUHU216HW,2013-04-01 16:24:00,
2013-04-01 11:29:00,39.2,19.0,30.52,North,0,0.0,0.0,44,0.00,,,0.00,WUHU216HW,2013-04-01 16:29:00,
2013-04-01 11:34:00,39.2,19.5,30.52,North,0,0.0,0.0,45,0.00,,,0.00,WUHU216HW,2013-04-01 16:34:00,
2013-04-01 11:39:00,39.4,19.2,30.53,North,0,0.0,0.0,44,0.00,,,0.00,WUHU216HW,2013-04-01 16:39:00,
2013-04-01 11:44:00,39.1,19.4,30.53,North,0,0.0,0.0,45,0.00,,,0.00,WUHU216HW,2013-04-01 16:44:00,
2013-04-01 11:49:00,38.7,19.1,30.53,North,0,0.0,0.0,45,0.00,,,0.00,WUHU216HW,2013-04-01 16:49:00,
2013-04-01 11:54:00,38.5,18.4,30.53,North,0,0.0,0.0,44,0.00,,,0.00,WUHU216HW,2013-04-01 16:54:00,
2013-04-01 11:59:00,38.7,19.1,30.53,North,0,0.0,0.0,45,0.00,,,0.00,WUHU216HW,2013-04-01 16:59:00,
2013-04-01 12:04:00,39.2,19.5,30.53,North,0,0.0,0.0,45,0.00,,,0.00,WUHU216HW,2013-04-01 17:04:00,
2013-04-01 12:09:00,39.8,20.0,30.53,North,0,0.0,0.0,45,0.00,,,0.00,WUHU216HW,2013-04-01 17:09:00,
2013-04-01 12:14:00,39.8,20.0,30.53,North,0,0.0,0.0,45,0.00,,,0.00,WUHU216HW,2013-04-01 17:14:00,
2013-04-01 12:19:00,40.1,19.3,30.53,North,0,0.0,0.0,43,0.00,,,0.00,WUHU216HW,2013-04-01 17:19:00,
2013-04-01 12:24:00,40.3,19.4,30.53,North,0,0.0,0.0,43,0.00,,,0.00,WUHU216HW,2013-04-01 17:24:00,
2013-04-01 12:29:00,40.0,18.1,30.53,North,0,0.0,0.0,41,0.00,,,0.00,WUHU216HW,2013-04-01 17:29:00,
2013-04-01 12:34:00,39.4,18.1,30.53,North,0,0.0,0.0,42,0.00,,,0.00,WUHU216HW,2013-04-01 17:34:00,
2013-04-01 12:39:00,39.2,19.0,30.53,North,0,0.0,0.0,44,0.00,,,0.00,WUHU216HW,2013-04-01 17:39:00,
2013-04-01 12:44:00,39.2,19.5,30.53,North,0,0.0,0.0,45,0.00,,,0.00,WUHU216HW,2013-04-01 17:44:00,
2013-04-01 12:49:00,39.4,19.2,30.53,North,0,0.0,0.0,44,0.00,,,0.00,WUHU216HW,2013-04-01 17:49:00,
2013-04-01 12:54:00,39.6,18.8,30.53,North,0,0.0,0.0,43,0.00,,,0.00,WUHU216HW,2013-04-01 17:54:00,
2013-04-01 12:59:00,39.8,19.5,30.53,North,0,0.0,0.0,44,0.00,,,0.00,WUHU216HW,2013-04-01 17:59:00,
2013-04-01 13:04:00,39.8,19.0,30.53,North,0,0.0,0.0,43,0.00,,,0.00,WUHU216HW,2013-04-01 18:04:00,
2013-04-01 13:09:00,40.0,19.2,30.52,North,0,0.0,0.0,43,0.00,,,0.00,WUHU216HW,2013-04-01 18:09:00,
2013-04-01 13:14:00,40.3,18.9,30.52,North,0,0.0,0.0,42,0.00,,,0.00,WUHU216HW,2013-04-01 18:14:00,
2013-04-01 13:19:00,40.1,18.8,30.52,North,0,0.0,0.0,42,0.00,,,0.00,WUHU216HW,2013-04-01 18:19:00,
2013-04-01 13:24:00,39.8,18.5,30.52,North,0,0.0,0.0,42,0.00,,,0.00,WUHU216HW,2013-04-01 18:24:00,
2013-04-01 13:29:00,39.4,19.2,30.52,North,0,0.0,0.0,44,0.00,,,0.00,WUHU216HW,2013-04-01 18:29:00,
2013-04-01 13:34:00,39.1,18.4,30.52,North,0,0.0,0.0,43,0.00,,,0.00,WUHU216HW,2013-04-01 18:34:00,
2013-04-01 13:39:00,38.9,18.7,30.51,North,0,0.0,0.0,44,0.00,,,0.00,WUHU216HW,2013-04-01 18:39:00,
2013-04-01 13:44:00,39.1,18.8,30.52,North,0,0.0,0.0,44,0.00,,,0.00,WUHU216HW,2013-04-01 18:44:00,
2013-04-01 13:49:00,39.1,18.8,30.52,North,0,0.0,0.0,44,0.00,,,0.00,WUHU216HW,2013-04-01 18:49:00,
2013-04-01 13:54:00,39.2,18.5,30.51,North,0,0.0,0.0,43,0.00,,,0.00,WUHU216HW,2013-04-01 18:54:00,
2013-04-01 13:59:00,39.2,18.5,30.51,North,0,0.0,0.0,43,0.00,,,0.00,WUHU216HW,2013-04-01 18:59:00,
2013-04-01 14:04:00,39.2,18.5,30.51,North,0,0.0,0.0,43,0.00,,,0.00,WUHU216HW,2013-04-01 19:04:00,
2013-04-01 14:09:00,39.2,19.0,30.51,North,0,0.0,0.0,44,0.00,,,0.00,WUHU216HW,2013-04-01 19:09:00,
2013-04-01 14:14:00,39.4,19.2,30.51,North,0,0.0,0.0,44,0.00,,,0.00,WUHU216HW,2013-04-01 19:14:00,
2013-04-01 14:19:00,39.4,18.1,30.51,North,0,0.0,0.0,42,0.00,,,0.00,WUHU216HW,2013-04-01 19:19:00,
2013-04-01 14:24:00,39.2,19.5,30.51,North,0,0.0,0.0,45,0.00,,,0.00,WUHU216HW,2013-04-01 19:24:00,
2013-04-01 14:29:00,39.6,19.4,30.51,North,0,0.0,0.0,44,0.00,,,0.00,WUHU216HW,2013-04-01 19:29:00,
2013-04-01 14:34:00,39.6,19.4,30.51,North,0,0.0,0.0,44,0.00,,,0.00,WUHU216HW,2013-04-01 19:34:00,
2013-04-01 14:39:00,39.6,18.8,30.51,North,0,0.0,0.0,43,0.00,,,0.00,WUHU216HW,2013-04-01 19:39:00,
2013-04-01 14:44:00,39.4,19.2,30.51,North,0,0.0,0.0,44,0.00,,,0.00,WUHU216HW,2013-04-01 19:44:00,
2013-04-01 14:49:00,39.4,18.6,30.51,North,0,0.0,0.0,43,0.00,,,0.00,WUHU216HW,2013-04-01 19:49:00,
2013-04-01 14:54:00,39.6,19.4,30.51,North,0,0.0,0.0,44,0.00,,,0.00,WUHU216HW,2013-04-01 19:54:00,
2013-04-01 14:59:00,39.4,19.2,30.51,North,0,0.0,0.0,44,0.00,,,0.00,WUHU216HW,2013-04-01 19:59:00,
2013-04-01 15:04:00,39.4,19.2,30.51,North,0,0.0,0.0,44,0.00,,,0.00,WUHU216HW,2013-04-01 20:04:00,
2013-04-01 15:09:00,39.1,18.8,30.51,North,0,0.0,0.0,44,0.00,,,0.00,WUHU216HW,2013-04-01 20:09:00,
2013-04-01 15:14:00,39.1,18.8,30.50,North,0,0.0,0.0,44,0.00,,,0.00,WUHU216HW,2013-04-01 20:14:00,
2013-04-01 15:19:00,39.2,19.0,30.50,North,0,0.0,0.0,44,0.00,,,0.00,WUHU216HW,2013-04-01 20:19:00,
2013-04-01 15:24:00,39.4,19.7,30.50,North,0,0.0,0.0,45,0.00,,,0.00,WUHU216HW,2013-04-01 20:24:00,
2013-04-01 15:29:00,39.6,19.9,30.50,North,0,0.0,0.0,45,0.00,,,0.00,WUHU216HW,2013-04-01 20:29:00,
2013-04-01 15:34:00,39.8,20.0,30.50,North,0,0.0,0.0,45,0.00,,,0.00,WUHU216HW,2013-04-01 20:34:00,
2013-04-01 15:39:00,39.8,19.5,30.50,North,0,0.0,0.0,44,0.00,,,0.00,WUHU216HW,2013-04-01 20:39:00,
2013-04-01 15:44:00,39.6,18.8,30.50,North,0,0.0,0.0,43,0.00,,,0.00,WUHU216HW,2013-04-01 20:44:00,
2013-04-01 15:49:00,39.6,19.4,30.50,North,0,0.0,0.0,44,0.00,,,0.00,WUHU216HW,2013-04-01 20:49:00,
2013-04-01 15:54:00,39.6,19.9,30.49,North,0,0.0,0.0,45,0.00,,,0.00,WUHU216HW,2013-04-01 20:54:00,
2013-04-01 15:59:00,40.0,19.2,30.50,North,0,0.0,0.0,43,0.00,,,0.00,WUHU216HW,2013-04-01 20:59:00,
2013-04-01 16:04:00,39.8,19.5,30.50,North,0,0.0,0.0,44,0.00,,,0.00,WUHU216HW,2013-04-01 21:04:00,
2013-04-01 16:09:00,40.0,19.6,30.49,North,0,0.0,0.0,44,0.00,,,0.00,WUHU216HW,2013-04-01 21:09:00,
2013-04-01 16:14:00,39.6,19.4,30.50,North,0,0.0,0.0,44,0.00,,,0.00,WUHU216HW,2013-04-01 21:14:00,
2013-04-01 16:19:00,39.6,19.9,30.50,North,0,0.0,0.0,45,0.00,,,0.00,WUHU216HW,2013-04-01 21:19:00,
2013-04-01 16:24:00,39.6,19.9,30.50,North,0,0.0,0.0,45,0.00,,,0.00,WUHU216HW,2013-04-01 21:24:00,
2013-04-01 16:29:00,39.6,19.4,30.50,North,0,0.0,0.0,44,0.00,,,0.00,WUHU216HW,2013-04-01 21:29:00,
2013-04-01 16:34:00,39.4,19.2,30.50,North,0,0.0,0.0,44,0.00,,,0.00,WUHU216HW,2013-04-01 21:34:00,
2013-04-01 16:39:00,39.4,19.2,30.50,North,0,0.0,0.0,44,0.00,,,0.00,WUHU216HW,2013-04-01 21:39:00,
2013-04-01 16:44:00,39.4,18.6,30.50,North,0,0.0,0.0,43,0.00,,,0.00,WUHU216HW,2013-04-01 21:44:00,
2013-04-01 16:49:00,39.2,19.5,30.50,North,0,0.0,0.0,45,0.00,,,0.00,WUHU216HW,2013-04-01 21:49:00,
2013-04-01 16:54:00,39.1,19.4,30.50,North,0,0.0,0.0,45,0.00,,,0.00,WUHU216HW,2013-04-01 21:54:00,
2013-04-01 16:59:00,39.1,19.4,30.51,North,0,0.0,0.0,45,0.00,,,0.00,WUHU216HW,2013-04-01 21:59:00,
2013-04-01 17:04:00,38.9,19.2,30.51,North,0,0.0,0.0,45,0.00,,,0.00,WUHU216HW,2013-04-01 22:04:00,
2013-04-01 17:09:00,39.1,19.4,30.51,North,0,0.0,0.0,45,0.00,,,0.00,WUHU216HW,2013-04-01 22:09:00,
2013-04-01 17:14:00,38.9,19.2,30.51,North,0,0.0,0.0,45,0.00,,,0.00,WUHU216HW,2013-04-01 22:14:00,
2013-04-01 17:19:00,39.1,19.4,30.51,North,0,0.0,0.0,45,0.00,,,0.00,WUHU216HW,2013-04-01 22:19:00,
2013-04-01 17:24:00,39.1,19.4,30.51,North,0,0.0,0.0,45,0.00,,,0.00,WUHU216HW,2013-04-01 22:24:00,
2013-04-01 17:29:00,38.9,19.2,30.51,North,0,0.0,0.0,45,0.00,,,0.00,WUHU216HW,2013-04-01 22:29:00,
2013-04-01 17:34:00,38.7,19.1,30.51,North,0,0.0,0.0,45,0.00,,,0.00,WUHU216HW,2013-04-01 22:34:00,
2013-04-01 17:39:00,38.3,18.7,30.51,North,0,0.0,0.0,45,0.00,,,0.00,WUHU216HW,2013-04-01 22:39:00,
2013-04-01 17:44:00,38.3,19.3,30.51,North,0,0.0,0.0,46,0.00,,,0.00,WUHU216HW,2013-04-01 22:44:00,
2013-04-01 17:49:00,38.3,19.3,30.51,North,0,0.0,0.0,46,0.00,,,0.00,WUHU216HW,2013-04-01 22:49:00,
2013-04-01 17:54:00,38.2,19.1,30.51,North,0,0.0,0.0,46,0.00,,,0.00,WUHU216HW,2013-04-01 22:54:00,
2013-04-01 17:59:00,38.0,18.4,30.51,North,0,0.0,0.0,45,0.00,,,0.00,WUHU216HW,2013-04-01 22:59:00,
2013-04-01 18:04:00,37.8,19.3,30.51,North,0,0.0,0.0,47,0.00,,,0.00,WUHU216HW,2013-04-01 23:04:00,
2013-04-01 18:09:00,37.6,18.6,30.51,North,0,0.0,0.0,46,0.00,,,0.00,WUHU216HW,2013-04-01 23:09:00,
2013-04-01 18:14:00,37.4,19.4,30.51,North,0,0.0,0.0,48,0.00,,,0.00,WUHU216HW,2013-04-01 23:14:00,
2013-04-01 18:19:00,37.4,19.0,30.51,North,0,0.0,0.0,47,0.00,,,0.00,WUHU216HW,2013-04-01 23:19:00,
2013-04-01 18:24:00,37.3,19.4,30.51,North,0,0.0,0.0,48,0.00,,,0.00,WUHU216HW,2013-04-01 23:24:00,
2013-04-01 18:29:00,37.1,19.7,30.51,North,0,0.0,0.0,49,0.00,,,0.00,WUHU216HW,2013-04-01 23:29:00,
2013-04-01 18:34:00,36.9,19.5,30.51,North,0,0.0,0.0,49,0.00,,,0.00,WUHU216HW,2013-04-01 23:34:00,
2013-04-01 18:39:00,36.5,18.6,30.51,North,0,0.0,0.0,48,0.00,,,0.00,WUHU216HW,2013-04-01 23:39:00,
2013-04-01 18:44:00,36.4,19.0,30.51,North,0,0.0,0.0,49,0.00,,,0.00,WUHU216HW,2013-04-01 23:44:00,
2013-04-01 18:49:00,36.2,18.9,30.51,North,0,0.0,0.0,49,0.00,,,0.00,WUHU216HW,2013-04-01 23:49:00,
2013-04-01 18:54:00,36.0,19.3,30.51,North,0,0.0,0.0,50,0.00,,,0.00,WUHU216HW,2013-04-01 23:54:00,
2013-04-01 18:59:00,35.8,19.1,30.51,North,0,0.0,0.0,50,0.00,,,0.00,WUHU216HW,2013-04-01 23:59:00,
2013-04-01 19:04:00,35.5,19.2,30.51,North,0,0.0,0.0,51,0.00,,,0.00,WUHU216HW,2013-04-02 00:04:00,
2013-04-01 19:09:00,35.1,19.3,30.51,North,0,0.0,0.0,52,0.00,,,0.00,WUHU216HW,2013-04-02 00:09:00,
2013-04-01 19:14:00,34.9,19.4,30.51,North,0,0.0,0.0,53,0.00,,,0.00,WUHU216HW,2013-04-02 00:14:00,
2013-04-01 19:19:00,34.6,19.1,30.51,North,0,0.0,0.0,53,0.00,,,0.00,WUHU216HW,2013-04-02 00:19:00,
2013-04-01 19:24:00,34.2,18.7,30.51,North,0,0.0,0.0,53,0.00,,,0.00,WUHU216HW,2013-04-02 00:24:00,
2013-04-01 19:29:00,34.0,18.5,30.51,North,0,0.0,0.0,53,0.00,,,0.00,WUHU216HW,2013-04-02 00:29:00,
2013-04-01 19:34:00,33.8,18.8,30.51,North,0,0.0,0.0,54,0.00,,,0.00,WUHU216HW,2013-04-02 00:34:00,
2013-04-01 19:39:00,33.5,18.6,30.51,North,0,0.0,0.0,54,0.00,,,0.00,WUHU216HW,2013-04-02 00:39:00,
2013-04-01 19:44:00,33.3,19.2,30.52,North,0,0.0,0.0,56,0.00,,,0.00,WUHU216HW,2013-04-02 00:44:00,
2013-04-01 19:49:00,33.1,18.6,30.51,North,0,0.0,0.0,55,0.00,,,0.00,WUHU216HW,2013-04-02 00:49:00,
2013-04-01 19:54:00,32.9,18.9,30.51,North,0,0.0,0.0,56,0.00,,,0.00,WUHU216HW,2013-04-02 00:54:00,
2013-04-01 19:59:00,32.8,18.7,30.52,North,0,0.0,0.0,56,0.00,,,0.00,WUHU216HW,2013-04-02 00:59:00,
2013-04-01 20:04:00,32.8,18.7,30.52,North,0,0.0,0.0,56,0.00,,,0.00,WUHU216HW,2013-04-02 01:04:00,
2013-04-01 20:09:00,32.6,18.5,30.52,North,0,0.0,0.0,56,0.00,,,0.00,WUHU216HW,2013-04-02 01:09:00,
2013-04-01 20:14:00,32.4,18.8,30.52,North,0,0.0,0.0,57,0.00,,,0.00,WUHU216HW,2013-04-02 01:14:00,
2013-04-01 20:19:00,32.0,18.6,30.53,North,0,0.0,0.0,57,0.00,,,0.00,WUHU216HW,2013-04-02 01:19:00,
2013-04-01 20:24:00,32.0,18.6,30.53,North,0,0.0,0.0,57,0.00,,,0.00,WUHU216HW,2013-04-02 01:24:00,
2013-04-01 20:29:00,31.7,18.5,30.53,North,0,0.0,0.0,58,0.00,,,0.00,WUHU216HW,2013-04-02 01:29:00,
2013-04-01 20:34:00,31.5,18.8,30.53,North,0,0.0,0.0,59,0.00,,,0.00,WUHU216HW,2013-04-02 01:34:00,
2013-04-01 20:39:00,31.5,18.5,30.53,North,0,0.0,0.0,58,0.00,,,0.00,WUHU216HW,2013-04-02 01:39:00,
2013-04-01 20:44:00,31.3,18.6,30.53,North,0,0.0,0.0,59,0.00,,,0.00,WUHU216HW,2013-04-02 01:44:00,
2013-04-01 20:49:00,31.1,18.5,30.53,North,0,0.0,0.0,59,0.00,,,0.00,WUHU216HW,2013-04-02 01:49:00,
2013-04-01 20:54:00,31.0,18.7,30.54,North,0,0.0,0.0,60,0.00,,,0.00,WUHU216HW,2013-04-02 01:54:00,
2013-04-01 20:59:00,30.8,18.9,30.54,North,0,0.0,0.0,61,0.00,,,0.00,WUHU216HW,2013-04-02 01:59:00,
2013-04-01 21:04:00,30.8,18.9,30.54,North,0,0.0,0.0,61,0.00,,,0.00,WUHU216HW,2013-04-02 02:04:00,
2013-04-01 21:09:00,30.6,18.4,30.54,North,0,0.0,0.0,60,0.00,,,0.00,WUHU216HW,2013-04-02 02:09:00,
2013-04-01 21:14:00,30.6,18.7,30.54,North,0,0.0,0.0,61,0.00,,,0.00,WUHU216HW,2013-04-02 02:14:00,
2013-04-01 21:19:00,30.4,18.9,30.55,North,0,0.0,0.0,62,0.00,,,0.00,WUHU216HW,2013-04-02 02:19:00,
2013-04-01 21:24:00,30.2,18.7,30.54,North,0,0.0,0.0,62,0.00,,,0.00,WUHU216HW,2013-04-02 02:24:00,
2013-04-01 21:29:00,30.1,18.5,30.55,North,0,0.0,0.0,62,0.00,,,0.00,WUHU216HW,2013-04-02 02:29:00,
2013-04-01 21:34:00,30.1,18.5,30.55,North,0,0.0,0.0,62,0.00,,,0.00,WUHU216HW,2013-04-02 02:34:00,
2013-04-01 21:40:00,29.9,18.7,30.55,North,0,0.0,0.0,63,0.00,,,0.00,WUHU216HW,2013-04-02 02:40:00,
2013-04-01 21:45:00,29.9,18.4,30.55,North,0,0.0,0.0,62,0.00,,,0.00,WUHU216HW,2013-04-02 02:45:00,
2013-04-01 21:50:00,29.5,18.8,30.55,North,0,0.0,0.0,64,0.00,,,0.00,WUHU216HW,2013-04-02 02:50:00,
2013-04-01 21:55:00,29.7,19.0,30.55,North,0,0.0,0.0,64,0.00,,,0.00,WUHU216HW,2013-04-02 02:55:00,
2013-04-01 22:00:00,29.5,18.5,30.55,North,0,0.0,0.0,63,0.00,,,0.00,WUHU216HW,2013-04-02 03:00:00,
2013-04-01 22:05:00,29.5,18.5,30.55,North,0,0.0,0.0,63,0.00,,,0.00,WUHU216HW,2013-04-02 03:05:00,
2013-04-01 22:10:00,29.3,19.0,30.56,North,0,0.0,0.0,65,0.00,,,0.00,WUHU216HW,2013-04-02 03:10:00,
2013-04-01 22:15:00,29.2,18.1,30.56,North,0,0.0,0.0,63,0.00,,,0.00,WUHU216HW,2013-04-02 03:15:00,
2013-04-01 22:20:00,29.2,18.1,30.56,North,0,0.0,0.0,63,0.00,,,0.00,WUHU216HW,2013-04-02 03:20:00,
2013-04-01 22:25:00,29.0,18.6,30.56,North,0,0.0,0.0,65,0.00,,,0.00,WUHU216HW,2013-04-02 03:25:00,
2013-04-01 22:30:00,29.0,18.6,30.56,North,0,0.0,0.0,65,0.00,,,0.00,WUHU216HW,2013-04-02 03:30:00,
2013-04-01 22:35:00,28.8,18.6,30.56,North,0,0.0,0.0,65,0.00,,,0.00,WUHU216HW,2013-04-02 03:35:00,
2013-04-01 22:40:00,28.6,18.0,30.56,North,0,0.0,0.0,64,0.00,,,0.00,WUHU216HW,2013-04-02 03:40:00,
2013-04-01 22:45:00,28.6,18.0,30.56,North,0,0.0,0.0,64,0.00,,,0.00,WUHU216HW,2013-04-02 03:45:00,
2013-04-01 22:50:00,28.4,17.8,30.56,North,0,0.0,0.0,64,0.00,,,0.00,WUHU216HW,2013-04-02 03:50:00,
2013-04-01 22:55:00,28.4,17.8,30.56,North,0,0.0,0.0,64,0.00,,,0.00,WUHU216HW,2013-04-02 03:55:00,
2013-04-01 23:00:00,28.4,17.8,30.56,North,0,0.0,0.0,64,0.00,,,0.00,WUHU216HW,2013-04-02 04:00:00,
2013-04-01 23:05:00,28.4,17.8,30.56,North,0,0.0,0.0,64,0.00,,,0.00,WUHU216HW,2013-04-02 04:05:00,
2013-04-01 23:10:00,28.6,18.0,30.56,North,0,0.0,0.0,64,0.00,,,0.00,WUHU216HW,2013-04-02 04:10:00,
2013-04-01 23:15:00,28.6,18.0,30.56,North,0,0.0,0.0,64,0.00,,,0.00,WUHU216HW,2013-04-02 04:15:00,
2013-04-01 23:20:00,28.4,17.8,30.56,North,0,0.0,0.0,64,0.00,,,0.00,WUHU216HW,2013-04-02 04:20:00,
2013-04-01 23:25:00,28.4,17.8,30.56,North,0,0.0,0.0,64,0.00,,,0.00,WUHU216HW,2013-04-02 04:25:00,
2013-04-01 23:30:00,28.4,18.2,30.56,North,0,0.0,0.0,65,0.00,,,0.00,WUHU216HW,2013-04-02 04:30:00,
2013-04-01 23:35:00,28.3,17.6,30.56,North,0,0.0,0.0,64,0.00,,,0.00,WUHU216HW,2013-04-02 04:35:00,
2013-04-01 23:40:00,28.1,17.8,30.56,North,0,0.0,0.0,65,0.00,,,0.00,WUHU216HW,2013-04-02 04:40:00,
2013-04-01 23:45:00,28.1,17.8,30.56,North,0,0.0,0.0,65,0.00,,,0.00,WUHU216HW,2013-04-02 04:45:00,
2013-04-01 23:50:00,27.9,18.0,30.56,North,0,0.0,0.0,66,0.00,,,0.00,WUHU216HW,2013-04-02 04:50:00,
2013-04-01 23:55:00,27.7,17.8,30.56,North,0,0.0,0.0,66,0.00,,,0.00,WUHU216HW,2013-04-02 04:55:00,